Regional Weather Roundup
Issued by NWS

Home | Current Version | Previous Version | Text Only | Print | Product List | Glossary On
Versions: 1 2 3 4 5 6 7 8 9 10 11 12 13 14 15 16 17 18 19 20 21 22 23 24 25 26 27 28 29 30 31 32 33 34 35 36 37 38 39 40 41 42 43 44 45 46 47 48 49 50
000
ASUS43 KDMX 280501
RWRIA

WEATHER ROUNDUP FOR IOWA
NATIONAL WEATHER SERVICE DES MOINES IA
1200 AM CDT SUN MAY 28 2017

NOTE: "FAIR" INDICATES FEW OR NO CLOUDS BELOW 12,000 FEET WITH NO
SIGNIFICANT WEATHER AND/OR OBSTRUCTIONS TO VISIBILITY.

* - THESE STATIONS ARE NOT NWS STATIONS...THUS NOT UNDER NWS
QUALITY CONTROL.  THEY ALSO DO NOT REPORT WEATHER SUCH
AS PRECIPITATION OR FOG.

IAZ001>003-012>014-020>022-031>034-043>046-280600-
   NORTHWEST IOWA

CITY           SKY/WX    TMP DP  RH WIND       PRES   REMARKS
CARROLL *      CLOUDY    59  59 100 W7        29.89S
CHEROKEE *     CLOUDY    56  53  88 W3        29.90S
DENISON *      CLEAR     57  52  82 CALM      29.93S
LE MARS *      PTCLDY    57  52  82 W5        29.93S
ORANGE CITY *  PTCLDY    55  54  94 W7        29.91F
SHELDON *      PTCLDY    55  54  94 SW7       29.89S
SIOUX CITY     LGT RAIN  58  52  80 W9        29.93S
SPENCER        CLEAR     54  53  97 W8        29.89F
STORM LAKE *   CLOUDY    61  52  72 NW8       29.90S
$$

IAZ055>058-069>071-079>083-090>094-280600-
   SOUTHWEST IOWA

CITY           SKY/WX    TMP DP  RH WIND       PRES   REMARKS
ATLANTIC *     MOCLDY    57  55  94 CALM      29.89F
AUDUBON *      MOCLDY    57  54  88 CALM      29.90F
CLARINDA *     CLEAR     59  57  94 NE6       29.90F
COUNCIL BLFS * CLEAR     59  57  94 NW8       29.93R
CRESTON *      CLEAR     59  57  94 NE6       29.90S
HARLAN  *      MOCLDY    57  57 100 NW7       29.94S
LAMONI         CLEAR     58  56  93 N8        29.88R
RED OAK *      CLEAR     57  55  94 NE5       29.90S
SHENANDOAH *   CLEAR     59  57  94 N3        29.90S
$$

IAZ047>049-059>061-072>074-084-280600-
   CENTRAL IOWA

CITY           SKY/WX    TMP DP  RH WIND       PRES   REMARKS
AMES           CLEAR     54  53  97 W6        29.86S
ANKENY *       CLEAR     55  54  94 CALM      29.88R
BOONE *        CLEAR     57  57 100 W3        29.87S
CHARITON *     CLEAR     55  54  94 NW6       29.86S
DES MOINES     PTCLDY    59  55  87 NW6       29.87R
GRINNELL*      CLEAR     55  52  89 CALM      29.86F
KNOXVILLE *    CLEAR     57  54  88 N6        29.85R
MARSHALLTOWN   CLEAR     57  55  93 N6        29.84F
NEWTON *       CLEAR     57  54  88 N5        29.84F
PELLA *        CLEAR     56  54  91 N5        29.86S
PERRY *          N/A     56  55  96 W5        29.88F
$$

IAZ004>006-015-016-023>025-035-036-280600-
   NORTH CENTRAL IOWA

CITY           SKY/WX    TMP DP  RH WIND       PRES   REMARKS
ALGONA *       CLOUDY    63  50  63 SW7       29.87F
CLARION *      CLEAR     54  54 100 W6        29.87F
ESTHERVILLE    CLOUDY    58  52  80 W9        29.86F
FORT DODGE *   CLEAR     52  48  87 CALM      29.89F
MASON CITY     CLOUDY    58  51  78 SW3       29.87F
FOREST CITY *  CLOUDY    57  46  67 CALM      29.86F
WEBSTER CITY * PTCLDY    55  52  88 W6        29.85F
IOWA FALLS *     N/A     56  54  93 CALM      29.87F
$$

IAZ007>011-017>019-026>030-037>042-050>054-066-280600-
   NORTHEAST IOWA

CITY           SKY/WX    TMP DP  RH WIND       PRES   REMARKS
CEDAR RAPIDS   CLOUDY    59  59 100 N7        29.82F
CHARLES CITY * CLOUDY    57  57 100 CALM      29.86F
CLINTON *      CLOUDY    63  62  97 N6        29.81F
DECORAH *      CLOUDY    57  55  94 CALM      29.84S
DUBUQUE        CLOUDY    60  58  92 CALM      29.82F
MONTICELLO *   CLOUDY    61  59  94 CALM      29.81F
OELWEIN *      CLOUDY    61  57  88 N5        29.85F
WATERLOO       CLOUDY    58  55  90 NW3       29.84F
$$

IAZ064-065-067-068-078-280600-
   EAST CENTRAL IOWA

CITY           SKY/WX    TMP DP  RH WIND       PRES   REMARKS
DAVENPORT      PTCLDY    63  61  93 N7        29.81F
IOWA CITY      CLEAR     62  57  83 NE5       29.83F
MT. PLEASANT * CLOUDY    62  62 100 N7        29.82S
MUSCATINE *    CLOUDY    63  61  94 CALM      29.81F
QUAD CITIES    CLOUDY    63  60  90 NW3       29.80F
$$

IAZ062-063-075>077-085>089-095>099-280600-
   SOUTHEAST IOWA

CITY           SKY/WX    TMP DP  RH WIND       PRES   REMARKS
BURLINGTON     CLOUDY    66  63  90 N6        29.80F
FAIRFIELD *    CLOUDY    59  59 100 N6        29.83R
FORT MADISON * CLOUDY    64  63  94 N3        29.81F
KEOKUK *       CLOUDY    64  63  94 N5        29.80R
OSKALOOSA *    MOCLDY    59  55  86 N7        29.85S
OTTUMWA        MOCLDY    58  57  97 NW7       29.84S
WASHINGTON *   CLEAR     61  61 100 NE7       29.83S
$$

ABBREVIATIONS USED IN REMARKS
   TC - TEMPERATURES IN CELSIUS
  WCI - WIND CHILL INDEX
   HX - HEAT INDEX
  VSB - VISIBILITY
$$





USA.gov is the U.S. government's official web portal to all federal, state and local government web resources and services.